Temp
56 59 60 62 67 68 72 74 73 69 69 69 69 70 70 72 72 72 74 76 76 77 77 78 79 78 77 77 78 77 76 75 77 74 71 78 80 80 81 81 81 80 79
55 57 57 59 60 64 67 71 68 68 69 66 68 69 69 71 72 73 74 75 74 76 75 75 77 77 74 77 76 75 74 76 76 71 72 69 75 78 78 80 78 78 78
56 54 56 57 59 61 62 64 67 65 65 66 67 67 66 68 70 71 71 72 72 69 71 72 69 68 68 71 73 75 74 70 70 70 72 67 67 72 77 75 76 75 76
60 58 56 54 59 60 62 63 64 64 65 65 65 65 64 62 65 66 69 69 70 70 67 67 66 65 65 64 64 65 65 69 68 67 71 74 73 67 66 72 73 74 73
56 57 58 57 57 60 63 64 64 66 66 67 66 64 63 63 64 63 64 67 65 67 65 64 64 64 64 63 62 63 62 62 61 62 63 70 69 67 64 63 66 70 72
56 53 58 60 58 59 61 63 64 66 67 66 66 64 63 62 60 61 62 62 64 64 64 64 64 64 63 62 61 61 59 60 60 61 61 62 64 64 61 61 65 64 67
52 53 53 55 55 57 60 62 65 64 66 66 68 67 67 65 63 63 64 64 63 63 63 64 63 63 64 65 63 61 60 61 60 62 62 63 64 66 62 61 62 60 65
51 47 52 55 57 58 60 62 64 62 64 64 63 64 66 66 66 67 67 66 65 65 66 64 64 65 66 65 64 62 62 61 61 61 61 62 62 63 63 62 60 57 59
49 47 52 54 57 59 59 61 63 63 62 63 64 64 65 66 66 66 67 66 67 66 65 64 65 64 63 62 62 60 57 58 57 59 59 59 59 59 60 60 60 57 54
50 48 50 54 57 58 60 61 62 62 61 62 63 62 63 63 65 65 64 66 68 67 67 64 64 62 62 63 62 59 58 58 59 58 59 59 60 60 60 59 59 58 57
47 51 52 55 57 58 58 59 60 61 61 62 62 62 62 62 63 64 64 63 64 64 63 63 61 61 62 62 61 59 57 57 58 57 58 58 59 59 59 58 56 54 56
49 52 53 55 56 56 57 57 57 58 58 61 62 62 61 61 62 62 61 63 64 63 62 61 60 60 60 60 58 56 56 57 56 56 56 56 56 57 58 57 55 55 56
51 53 54 53 54 55 55 56 57 56 58 58 60 61 62 61 61 60 60 60 59 60 61 60 59 58 57 58 58 56 55 55 56 55 54 55 55 55 55 55 54 53 51
51 51 53 53 54 53 54 54 55 56 55 56 58 58 59 59 60 60 59 59 59 58 58 58 57 56 56 56 55 55 54 54 54 52 53 54 54 55 55 53 53 52 50
50 50 50 51 52 52 53 53 53 54 54 54 55 55 57 58 58 58 58 57 57 57 57 56 55 53 53 53 53 52 53 52 52 51 52 52 51 47 51 51 51 49 47
48 49 50 50 50 50 50 51 51 51 52 53 53 54 55 56 55 56 57 56 55 55 55 54 54 53 52 48 49 52 53 53 52 51 51 50 45 47 47 47 46 48 46
47 47 48 49 49 50 49 48 49 51 51 51 52 52 53 52 53 54 54 53 53 53 52 53 53 51 53 48 48 48 51 50 49 48 47 47 47 45 47 45 45 44 43
46 47 48 48 49 50 49 49 49 50 49 50 51 51 50 50 51 52 52 52 52 51 50 50 51 51 51 48 48 47 49 45 40 40 41 44 42 42 42 41 40 43 45
46 47 48 47 48 48 48 48 48 48 48 48 48 49 49 48 49 49 50 52 50 49 49 50 49 48 48 47 47 47 43 41 39 40 45 46 45 42 42 40 39 43 43
46 46 46 47 47 47 47 46 46 46 46 46 46 48 48 48 47 48 48 49 49 47 47 44 45 47 47 46 47 46 44 39 40 45 46 42 43 42 42 41 43 41 42
44 46 46 45 45 46 45 43 44 43 44 44 46 47 48 48 48 47 47 45 46 45 44 42 40 45 46 48 46 46 44 42 40 41 42 44 42 42 43 42 44 42 44
43 44 43 43 45 44 43 42 42 44 45 45 44 45 46 47 46 46 46 43 45 44 43 42 41 41 46 45 45 46 45 44 41 41 43 44 42 42 42 43 42 40 41
43 44 43 43 45 44 43 41 43 44 44 44 43 43 46 47 47 45 45 42 43 43 41 39 40 41 43 44 44 45 46 44 42 45 44 43 41 42 42 43 40 40 40
42 43 42 42 42 44 44 44 44 44 43 43 43 43 43 42 46 43 42 40 39 39 38 36 37 39 38 38 39 43 45 45 42 40 40 41 41 42 43 43 41 41 41
41 41 41 40 41 43 43 44 43 43 41 42 42 42 42 41 40 42 40 39 41 41 39 38 38 37 36 38 41 40 40 41 40 38 38 38 40 39 40 41 42 42 40
41 40 40 40 40 41 41 43 43 42 40 39 40 41 40 41 38 37 39 43 42 42 42 43 41 40 43 43 42 42 42 43 42 34 34 35 36 36 39 38 39 39 38
MSLP
1009.70 1010.06 1010.42 1010.34 1010.58 1010.63 1010.58 1010.82 1011.34 1011.54 1011.80 1012.23 1013.04 1013.29 1013.84 1014.11 1014.32 1014.61 1014.77 1015.14 1015.23 1015.44 1015.72 1015.74 1015.90 1016.14 1016.38 1016.49 1016.76 1016.97 1016.97 1017.22 1017.46 1017.63 1017.62 1016.97 1016.97 1017.01 1017.19 1017.34 1017.39 1017.37 1017.59
1010.53 1010.57 1010.79 1010.45 1011.02 1010.84 1010.69 1011.04 1011.03 1011.39 1011.75 1012.14 1012.47 1013.25 1013.69 1013.82 1013.97 1014.30 1014.56 1014.76 1015.08 1015.22 1015.53 1015.76 1015.92 1016.07 1016.43 1016.21 1016.43 1016.76 1016.71 1016.68 1017.24 1017.33 1017.12 1016.64 1016.68 1016.97 1017.27 1017.30 1017.49 1017.36 1017.61
1010.63 1010.46 1010.53 1010.59 1010.78 1011.11 1011.05 1011.04 1011.10 1011.46 1011.71 1011.88 1012.61 1012.94 1013.68 1014.02 1013.74 1013.88 1014.51 1014.94 1015.05 1015.43 1015.18 1015.78 1016.16 1016.48 1016.71 1016.46 1016.34 1016.44 1016.30 1016.49 1017.00 1017.39 1016.99 1016.63 1016.35 1016.85 1016.85 1017.28 1017.50 1017.57 1017.64
1010.51 1010.24 1010.52 1010.46 1010.79 1010.81 1011.37 1011.34 1011.36 1011.71 1012.13 1012.46 1012.73 1012.86 1012.93 1012.28 1013.44 1014.11 1014.93 1014.96 1015.08 1014.89 1015.32 1015.35 1015.80 1016.02 1016.00 1016.49 1016.63 1016.59 1016.80 1016.77 1016.96 1017.45 1017.12 1016.85 1016.91 1017.05 1016.91 1017.41 1017.54 1017.66 1017.65
1009.40 1010.08 1010.55 1010.85 1010.80 1010.92 1010.91 1011.23 1011.31 1011.27 1011.31 1012.12 1012.45 1012.52 1013.42 1013.56 1013.99 1015.00 1014.04 1014.59 1014.57 1014.25 1015.10 1015.30 1015.21 1015.32 1015.94 1015.98 1016.17 1016.33 1016.86 1017.10 1017.53 1017.48 1017.30 1017.20 1017.55 1017.78 1017.78 1017.26 1017.46 1017.53 1017.77
1009.11 1010.51 1011.37 1011.35 1011.31 1011.55 1011.45 1011.27 1011.17 1010.59 1010.71 1010.94 1011.49 1011.84 1012.25 1013.20 1013.71 1014.06 1014.37 1014.07 1013.92 1014.80 1014.75 1014.85 1014.73 1015.06 1015.44 1015.66 1015.76 1015.98 1016.62 1017.53 1017.32 1017.54 1017.87 1017.95 1017.80 1017.66 1017.95 1017.76 1017.36 1017.46 1017.76
1009.55 1011.01 1011.90 1011.70 1011.89 1011.91 1011.85 1011.15 1010.51 1010.56 1010.73 1010.86 1010.72 1011.10 1011.44 1012.09 1012.44 1012.80 1013.14 1013.04 1013.23 1013.86 1013.96 1014.16 1014.18 1014.78 1014.90 1015.00 1015.17 1015.73 1016.19 1016.74 1017.11 1017.20 1017.62 1017.94 1017.83 1017.69 1017.65 1017.70 1017.43 1017.78 1017.72
1010.80 1011.81 1012.66 1011.36 1012.22 1012.48 1011.54 1011.11 1010.94 1010.97 1011.03 1011.34 1011.21 1011.34 1011.51 1011.47 1011.90 1012.08 1012.33 1012.24 1012.29 1012.88 1013.37 1013.64 1013.87 1014.05 1014.22 1014.48 1014.88 1015.07 1015.56 1016.18 1017.00 1017.29 1017.64 1017.83 1017.92 1017.90 1017.81 1017.84 1017.87 1017.86 1017.91
1011.97 1012.37 1013.20 1012.33 1012.82 1012.28 1012.19 1011.75 1011.37 1011.61 1011.73 1011.72 1011.48 1011.44 1011.57 1011.78 1011.66 1011.63 1011.88 1012.04 1012.00 1012.31 1012.82 1013.25 1013.49 1013.73 1014.12 1014.52 1014.99 1015.08 1015.50 1015.97 1016.79 1017.18 1017.52 1018.03 1017.92 1017.92 1017.93 1017.92 1017.97 1018.10 1017.83
1012.29 1013.03 1013.30 1013.13 1013.12 1013.00 1012.78 1012.33 1012.07 1011.92 1011.98 1011.98 1012.05 1012.02 1012.05 1012.13 1011.77 1011.73 1011.68 1011.62 1011.77 1012.12 1012.21 1012.95 1013.30 1013.71 1013.90 1014.31 1014.80 1015.33 1015.86 1016.06 1016.50 1017.02 1017.34 1017.65 1017.68 1017.74 1017.85 1017.89 1017.99 1018.20 1017.94
1013.50 1013.95 1013.49 1013.71 1013.52 1013.23 1013.21 1013.10 1012.80 1012.41 1012.32 1012.45 1012.45 1012.52 1012.45 1012.05 1011.90 1011.69 1011.83 1011.95 1011.84 1011.88 1012.30 1012.67 1013.10 1013.42 1013.76 1014.05 1014.66 1015.27 1015.70 1016.30 1016.55 1017.05 1017.16 1017.40 1017.33 1017.24 1017.74 1018.03 1018.22 1018.32 1018.10
1014.17 1014.29 1014.43 1014.56 1013.92 1013.64 1013.58 1013.28 1013.00 1012.87 1012.86 1012.97 1012.51 1012.45 1012.25 1012.22 1011.91 1011.83 1011.85 1012.01 1011.94 1012.26 1012.27 1012.51 1012.90 1013.28 1013.62 1014.12 1014.59 1015.28 1015.64 1016.07 1016.64 1016.51 1016.92 1017.07 1017.11 1017.16 1017.48 1017.51 1017.87 1018.22 1018.27
1015.15 1014.96 1014.91 1014.52 1014.42 1014.37 1013.82 1013.74 1013.71 1013.69 1013.53 1013.14 1012.82 1012.52 1012.13 1011.89 1011.80 1011.92 1012.09 1012.19 1012.23 1012.30 1012.50 1012.73 1012.82 1013.07 1013.49 1014.07 1014.57 1015.17 1015.48 1015.91 1016.20 1016.36 1016.46 1016.79 1016.91 1017.09 1017.18 1017.51 1017.86 1018.13 1018.56
1014.79 1014.69 1014.61 1014.70 1014.59 1014.75 1014.74 1014.83 1014.50 1014.18 1013.90 1013.34 1013.06 1012.73 1012.27 1012.22 1012.09 1012.05 1012.05 1012.15 1012.37 1012.38 1012.59 1012.90 1013.10 1013.55 1013.83 1014.20 1014.52 1015.01 1015.65 1015.96 1016.32 1016.49 1016.46 1016.82 1016.83 1016.62 1016.89 1017.44 1017.69 1018.09 1018.61
1015.03 1015.24 1015.14 1014.92 1015.09 1015.30 1015.34 1015.16 1014.89 1014.68 1014.50 1014.20 1013.70 1013.09 1012.64 1012.33 1012.24 1012.35 1012.32 1012.58 1012.67 1012.86 1013.03 1013.08 1013.32 1013.53 1013.96 1014.36 1014.70 1015.14 1015.45 1015.89 1016.25 1016.37 1016.75 1016.91 1017.02 1016.98 1016.99 1017.45 1018.04 1018.38 1018.49
1015.56 1015.52 1015.55 1015.93 1015.82 1015.60 1015.51 1015.41 1015.17 1014.95 1014.62 1014.25 1013.77 1013.53 1013.37 1012.86 1012.62 1012.63 1012.50 1012.37 1012.68 1013.09 1012.98 1013.20 1013.27 1013.61 1014.22 1014.61 1014.83 1014.83 1015.13 1015.76 1015.90 1016.19 1016.77 1017.20 1017.31 1017.53 1017.75 1018.18 1018.09 1018.16 1018.30
1016.06 1016.11 1016.14 1016.15 1015.86 1015.69 1015.74 1015.49 1015.35 1014.96 1014.68 1014.51 1014.31 1014.11 1013.79 1013.39 1013.09 1012.82 1012.72 1012.77 1012.97 1013.06 1013.28 1013.31 1013.68 1014.06 1014.31 1014.77 1014.93 1015.06 1015.15 1015.89 1016.26 1016.35 1016.83 1017.13 1017.57 1017.91 1017.91 1017.90 1018.23 1018.12 1018.25
1016.78 1016.78 1016.81 1016.82 1016.78 1016.54 1016.26 1016.12 1015.81 1015.30 1014.82 1014.52 1014.32 1014.20 1013.95 1013.56 1013.21 1013.08 1012.83 1012.76 1012.96 1013.05 1013.37 1013.56 1013.94 1014.02 1014.21 1014.54 1015.07 1015.15 1015.46 1016.32 1016.50 1016.60 1016.47 1017.09 1017.07 1017.51 1017.89 1018.05 1018.13 1018.16 1018.20
1017.41 1017.30 1017.21 1017.17 1017.07 1016.93 1016.81 1016.43 1015.90 1015.49 1015.21 1014.98 1014.85 1014.44 1013.95 1013.52 1013.18 1012.98 1012.70 1012.53 1012.68 1012.91 1013.14 1013.23 1013.48 1013.85 1014.24 1014.76 1015.01 1015.32 1015.56 1015.84 1016.31 1016.21 1016.42 1016.78 1016.90 1017.10 1017.41 1017.72 1017.62 1018.14 1018.61
1017.67 1017.58 1017.47 1017.41 1017.19 1017.11 1016.96 1016.67 1016.25 1016.04 1015.65 1015.30 1014.66 1014.02 1013.59 1013.17 1012.79 1012.54 1012.39 1012.43 1012.29 1012.40 1012.99 1013.29 1013.44 1013.51 1013.87 1014.11 1014.43 1014.74 1015.03 1015.65 1015.77 1015.99 1016.00 1016.56 1016.34 1016.77 1017.11 1017.53 1017.70 1017.74 1018.27
1017.75 1017.73 1017.66 1017.51 1017.39 1017.34 1017.16 1016.72 1016.32 1016.08 1015.96 1015.59 1014.94 1014.22 1013.52 1013.02 1012.55 1012.06 1011.77 1011.76 1011.85 1011.94 1012.07 1012.54 1013.00 1013.17 1013.31 1013.34 1013.55 1014.08 1014.47 1014.75 1015.71 1015.41 1015.50 1015.98 1016.13 1016.74 1017.20 1017.37 1017.44 1017.47 1017.94
1017.92 1017.82 1017.62 1017.51 1017.46 1017.41 1017.20 1016.71 1016.30 1016.04 1015.70 1015.31 1014.84 1014.20 1013.59 1013.00 1012.59 1011.99 1011.49 1011.50 1011.44 1011.46 1011.76 1012.15 1012.48 1012.98 1012.82 1012.85 1013.05 1013.33 1013.76 1014.74 1015.15 1015.05 1015.22 1015.48 1016.19 1016.63 1016.79 1016.94 1017.22 1017.65 1018.03
1017.78 1017.64 1017.51 1017.30 1017.20 1017.14 1016.96 1016.47 1016.09 1015.86 1015.45 1015.00 1014.54 1014.08 1013.47 1012.82 1012.26 1011.98 1011.58 1011.31 1011.04 1010.94 1011.17 1011.52 1011.68 1011.92 1012.12 1012.36 1012.64 1012.80 1013.22 1014.07 1014.92 1014.88 1014.92 1015.24 1015.75 1016.08 1016.26 1016.51 1017.14 1017.67 1017.96
1017.58 1017.38 1017.29 1017.08 1016.89 1016.70 1016.56 1016.26 1015.91 1015.70 1015.37 1014.78 1014.24 1013.82 1013.33 1012.92 1012.21 1011.93 1011.74 1011.38 1011.20 1010.86 1010.94 1011.07 1011.21 1011.42 1011.75 1012.09 1012.27 1012.53 1013.15 1013.67 1014.28 1014.62 1014.61 1014.80 1015.24 1015.56 1015.81 1016.31 1016.89 1017.32 1017.58
1017.71 1017.57 1017.27 1016.93 1016.50 1016.32 1015.99 1015.67 1015.55 1015.37 1014.98 1014.40 1013.97 1013.49 1013.12 1012.86 1012.37 1011.97 1011.44 1011.18 1010.71 1010.70 1010.17 1010.28 1010.38 1010.54 1010.85 1010.82 1011.21 1011.85 1012.33 1012.82 1013.21 1013.87 1014.26 1014.56 1014.84 1015.03 1015.45 1015.92 1016.13 1016.67 1017.29
1017.32 1017.14 1016.87 1016.54 1016.25 1015.95 1015.62 1015.27 1015.08 1014.93 1014.62 1014.14 1013.67 1013.36 1013.02 1012.48 1012.28 1011.91 1011.14 1010.67 1010.24 1010.21 1009.72 1009.50 1009.67 1009.74 1009.72 1010.08 1010.54 1010.94 1011.43 1011.90 1012.44 1013.30 1013.65 1013.97 1014.15 1014.39 1014.66 1015.26 1015.63 1016.15 1016.72
Wind_Speed
3 2 3 5 2 5 12 19 17 11 8 6 8 7 7 7 6 6 8 10 9 10 11 9 10 9 9 10 11 9 9 7 6 4 5 6 6 7 5 4 3 2 4
4 8 4 7 5 10 9 13 8 8 8 3 3 4 4 1 2 4 6 8 9 11 9 10 9 9 8 10 11 10 7 8 7 5 2 4 4 2 4 4 4 5 3
7 6 10 2 1 8 2 7 10 5 2 5 4 1 4 4 2 1 4 5 7 8 8 11 8 8 5 7 9 11 13 9 6 8 4 3 4 2 3 3 3 4 3
6 8 7 3 4 7 11 8 8 6 12 10 7 7 4 1 2 1 5 3 4 7 8 9 8 6 5 6 4 2 3 6 7 4 5 4 3 4 4 2 2 2 4
10 11 4 7 7 10 11 11 16 15 12 13 14 12 8 6 4 4 5 6 3 2 5 6 6 5 5 5 5 4 2 1 1 3 2 2 2 3 6 6 4 2 4
14 11 4 4 4 1 5 8 9 6 12 13 18 15 14 11 8 7 9 5 2 5 5 6 7 10 10 10 8 8 6 4 4 2 1 4 4 4 3 5 6 4 4
15 10 3 5 8 4 2 0 3 4 4 7 13 16 17 18 17 14 11 9 7 7 11 12 10 9 10 12 9 8 6 8 6 8 6 4 5 4 3 3 3 4 3
14 12 6 10 7 4 6 7 7 6 5 4 4 3 7 7 10 12 10 10 9 11 11 11 10 13 14 9 7 6 7 7 5 6 4 4 5 5 4 3 3 3 6
13 13 3 11 6 8 9 9 9 8 7 5 4 3 1 5 7 8 10 7 9 7 10 11 11 10 9 8 8 7 6 6 4 6 6 5 3 4 4 4 5 5 3
13 11 6 9 9 9 9 10 10 9 8 7 5 4 3 1 3 4 6 7 7 9 11 12 12 9 8 8 9 6 6 7 6 5 6 6 4 4 4 4 5 6 7
11 8 10 8 9 11 11 11 11 11 10 8 6 4 3 3 3 2 3 4 5 7 9 9 9 10 10 10 9 8 8 7 7 7 7 7 5 4 4 5 5 5 6
10 9 8 7 11 12 12 12 12 12 11 9 8 6 4 3 2 3 3 3 4 5 8 10 10 10 10 9 10 10 9 10 9 8 7 7 5 7 6 5 7 6 5
8 8 8 11 11 11 12 12 11 11 11 10 10 9 8 6 4 2 1 1 2 4 6 8 10 11 11 11 10 9 9 8 8 7 7 7 7 6 5 6 6 5 3
10 10 11 10 10 9 9 9 10 10 10 11 10 9 9 8 7 4 2 1 3 4 6 6 7 8 9 9 9 9 8 8 7 6 5 6 7 7 7 6 6 4 5
10 11 11 11 11 11 10 10 10 10 11 10 9 10 9 8 7 5 4 2 3 4 5 7 7 7 7 6 10 9 9 7 7 6 6 6 4 1 2 4 6 6 5
8 9 9 8 9 11 11 11 11 11 10 10 10 10 10 8 7 6 5 4 4 5 5 6 6 8 5 9 10 9 8 8 8 7 6 5 5 6 7 6 3 3 5
5 8 10 10 12 12 11 12 12 11 10 9 9 9 9 9 7 7 7 8 8 7 7 7 7 9 8 14 13 10 6 7 7 7 7 7 5 5 6 6 6 5 3
5 5 6 6 7 8 10 11 10 10 10 10 10 9 9 9 8 8 10 10 9 10 10 10 10 9 7 14 15 14 7 6 5 6 6 8 8 7 7 5 4 4 3
5 6 5 6 6 7 8 9 10 10 10 10 10 10 10 10 9 9 10 10 10 10 10 9 11 10 9 14 14 13 7 5 5 5 8 8 9 10 11 6 6 5 4
5 5 5 6 6 6 8 8 8 9 9 12 13 13 13 11 11 9 8 9 9 9 8 9 9 11 10 15 15 13 6 6 5 6 7 11 8 12 13 7 8 7 6
5 6 6 7 6 8 9 9 9 8 10 11 12 13 11 12 12 11 8 7 9 7 8 7 6 9 10 11 15 15 8 6 6 6 6 6 13 13 14 12 7 6 6
5 5 6 6 6 7 7 8 9 9 10 10 11 12 12 10 9 11 9 7 8 9 8 8 7 7 9 11 14 16 14 12 6 7 6 7 14 14 14 12 7 8 7
6 6 7 8 7 6 7 9 9 10 11 11 10 11 13 12 10 9 9 6 7 7 7 6 7 7 6 7 13 15 18 16 9 7 8 10 14 14 11 14 11 11 6
8 8 9 9 10 8 8 9 10 9 10 11 11 11 10 12 12 6 6 5 5 6 6 7 7 7 6 6 6 8 10 17 13 9 7 9 10 12 10 9 10 7 6
8 8 9 10 11 10 11 10 10 10 10 10 10 10 8 10 11 10 7 6 8 9 7 8 8 8 8 10 14 14 9 7 11 9 5 6 8 8 8 8 9 8 7
9 9 10 10 11 11 11 10 9 9 10 10 9 9 9 8 7 8 10 11 15 19 18 15 11 8 14 14 21 22 22 20 19 5 7 8 7 8 9 8 9 8 9
Wind_Direction
36 75 51 20 223 222 192 195 189 168 152 157 179 174 201 203 190 209 216 218 211 224 225 229 227 213 212 208 210 211 204 205 211 217 228 238 237 256 265 266 265 247 304
135 179 88 57 8 293 209 216 203 159 158 163 144 158 162 155 244 202 231 240 232 228 228 239 245 226 229 221 207 207 202 215 190 224 237 249 209 192 195 273 266 294 291
163 143 151 145 316 255 293 291 274 104 144 202 236 231 155 194 239 286 261 236 231 221 216 228 221 231 246 244 224 213 214 208 186 225 244 194 217 219 249 209 281 282 277
120 133 112 139 244 281 241 232 229 199 200 215 234 232 257 137 158 17 275 203 220 226 216 203 201 203 196 206 213 258 296 272 215 205 226 254 275 259 286 160 193 264 274
109 65 119 202 214 233 241 221 225 226 214 195 196 197 201 206 210 239 302 242 210 237 212 201 166 158 198 169 136 100 105 79 263 284 268 234 241 236 237 269 233 256 252
81 61 57 140 123 280 241 235 217 219 209 211 215 201 186 198 195 205 228 215 198 210 209 213 189 189 176 171 158 153 142 218 156 157 201 222 236 213 210 226 258 285 284
87 74 40 93 69 55 296 144 175 115 149 198 208 194 199 198 203 202 207 202 197 217 220 199 187 186 186 177 171 172 177 191 202 204 211 222 232 224 219 231 259 267 297
87 78 341 75 65 83 61 71 86 74 63 78 114 146 190 190 203 208 213 213 205 210 206 197 194 194 197 196 181 174 172 173 194 190 193 205 210 205 220 224 226 250 247
95 92 327 60 70 60 61 61 72 75 49 37 42 75 149 186 194 202 210 215 210 201 200 198 202 198 195 174 174 172 160 144 153 186 188 207 196 198 213 214 221 224 255
78 88 63 46 49 51 49 54 54 57 51 40 27 13 5 288 212 201 214 220 211 200 198 197 199 189 175 174 163 146 143 153 168 175 193 203 195 197 204 214 218 226 247
69 68 55 43 44 50 44 41 40 42 33 29 23 12 1 350 327 266 225 218 194 186 193 189 178 174 171 163 157 158 156 173 173 184 197 199 190 196 207 215 219 228 233
74 68 67 55 46 39 36 33 28 28 23 4 2 6 7 348 356 325 314 281 216 192 179 174 171 169 166 162 161 161 168 174 186 184 192 203 193 212 217 213 227 232 232
81 78 60 49 41 32 28 22 25 20 11 7 0 354 351 349 349 348 328 247 238 199 179 178 173 167 163 164 165 167 169 175 185 184 188 198 200 211 202 208 221 213 209
53 42 40 34 33 29 24 15 13 12 4 360 357 352 349 340 332 332 337 181 178 173 170 173 162 165 162 162 159 162 167 170 176 172 184 194 202 211 202 202 215 216 216
42 35 24 14 10 7 6 8 5 1 357 350 346 347 335 323 315 306 296 260 201 181 174 164 162 155 161 165 166 168 168 171 173 169 184 193 196 101 202 208 210 211 215
25 13 12 12 7 2 359 354 353 350 346 342 341 340 332 318 289 278 267 257 232 205 187 186 179 176 182 175 177 168 172 181 182 180 194 192 190 199 191 187 186 223 216
5 1 359 355 351 352 352 349 340 339 342 334 332 329 327 321 291 252 239 233 221 203 209 203 196 196 190 180 177 178 173 184 191 176 183 188 184 175 177 146 152 130 111
343 340 337 336 340 336 337 331 333 336 337 332 330 329 320 313 305 262 230 222 217 207 201 199 201 198 196 187 188 182 178 180 181 189 183 197 175 176 169 163 165 196 187
332 328 334 335 330 330 333 323 323 328 325 328 324 327 323 310 303 279 250 224 206 206 208 205 197 199 194 195 189 179 171 169 197 196 202 207 191 181 178 175 166 182 174
335 332 328 322 330 340 331 320 323 321 319 323 318 318 321 311 302 294 269 238 220 208 201 196 197 197 197 190 191 179 166 178 201 200 205 208 196 187 185 191 198 195 190
318 326 326 327 329 334 331 323 323 320 323 314 315 311 312 316 309 299 282 246 234 219 205 202 200 207 204 194 196 186 185 186 199 209 207 207 201 197 202 200 205 203 171
319 313 308 311 308 320 313 311 308 320 314 313 314 317 315 317 309 302 291 259 236 220 216 208 207 217 213 214 200 203 195 194 200 213 213 205 201 198 203 191 196 177 181
298 301 297 300 304 316 310 309 320 319 318 310 312 310 312 310 315 307 292 272 244 225 213 204 209 209 202 205 206 214 209 202 207 223 212 193 194 200 200 194 187 186 189
299 298 300 302 301 303 298 294 307 309 311 306 310 313 318 316 310 307 286 264 238 220 218 204 209 202 189 193 192 205 218 210 201 199 196 190 188 194 206 195 188 200 198
298 294 289 290 288 294 296 301 300 302 303 308 310 309 310 309 309 306 291 271 252 237 216 218 213 199 203 209 195 193 201 199 186 167 161 181 188 191 196 202 199 196 199
296 293 290 288 289 292 291 295 297 291 294 299 301 305 304 303 299 299 303 285 264 261 246 231 216 218 225 211 202 204 204 202 186 160 176 191 191 193 194 197 199 198 200